Overview Statistics Trail Chart Weather Telemetry Raw packets
 

This is the latest recevied weather packets stored in our database for station/object OE3TEC-15. If no packets are shown the sender has not sent any weather packets the latest 10 day(s).

<< 2 3 4 5 6 7 8 >>
Time Temp. Humidity Pressure Rain* Wind** Luminosity Snow
1788426771 25.56° C 43% 1021.6 hPa 0 mm - 561 W/m² -
1788426134 25.56° C 45% 1021.7 hPa 0 mm - 546 W/m² -
1788425531 25° C 45% 1021.8 hPa 0 mm - 531 W/m² -
1788423669 23.89° C 48% 1021.7 hPa 0 mm - 278 W/m² -
1788422462 24.44° C 47% 1021.9 hPa 0 mm - 387 W/m² -
1788421854 23.33° C 50% 1021.9 hPa 0 mm - 309 W/m² -
1788418762 21.67° C 55% 1021.5 hPa 0 mm - 362 W/m² -
1788416295 19.44° C 62% 1021.6 hPa 0 mm - 95 W/m² -
1788413839 17.22° C 77% 1021.6 hPa 0 mm - 49 W/m² -
1788413235 16.67° C 78% 1021.7 hPa 0 mm - 36 W/m² -
1788409515 16.11° C 80% 1021.5 hPa 0 mm - 4 W/m² -
1788408893 16.11° C 79% 1021.1 hPa 0 mm - 2 W/m² -
1788407686 16.67° C 76% 1021.3 hPa 0 mm - 0 W/m² -
1788407071 16.67° C 75% 1021.2 hPa 0 mm - 0 W/m² -
1788405830 16.11° C 75% 1021.2 hPa 0 mm - 0 W/m² -
1788404587 14.44° C 84% 1021.2 hPa 0 mm - 0 W/m² -
1788403986 14.44° C 87% 1021.1 hPa 0 mm - 0 W/m² -
1788403351 14.44° C 86% 1021 hPa 0 mm - 0 W/m² -
1788401526 15.56° C 78% 1021.1 hPa 0 mm - 0 W/m² -
1788400311 15.56° C 82% 1021.1 hPa 0 mm - 0 W/m² -
1788398460 15.56° C 82% 1021.4 hPa 0 mm - 0 W/m² -
1788397823 15.56° C 78% 1021.3 hPa 0 mm - 0 W/m² -
1788394117 15.56° C 78% 1021.3 hPa 0 mm - 0 W/m² -
1788392917 15° C 77% 1021.4 hPa 0 mm - 0 W/m² -
1788392295 15° C 77% 1021.5 hPa 0 mm - 0 W/m² -

* Rain latest hour (hover to see other rain measurements)
** Current wind speed in m/s (hover to see current wind gust speed)